Simultaneous Nadir Overpasses (SNOs) Predictions

Prediction of SNOs between NOAA-20 and LANDSAT-8 Satellite Orbit:

Table of predicted SNOs for the next 14.0 days since TLE Epoch: 2/3/2024
Index Date (NOAA-20) Time (NOAA-20) Lat,Lon (NOAA-20) SZA (NOAA-20 ) Date (LANDSAT-8) Time (LANDSAT-8) Lat,Lon (LANDSAT-8) SZA (LANDSAT-8 ) Distance(km) Time Diff (sec)
1 02/04/2024 14:15:58 70.68, -38.52 87.01 02/04/2024 14:17:08 70.56, -37.23 86.83 48.96 70
2 02/04/2024 15:06:30 -70.07, 129.76 93.64 02/04/2024 15:06:45 -70.07, 129.68 93.65 2.97 15
3 02/04/2024 15:57:15 70.00, -62.82 86.27 02/04/2024 15:56:12 69.97, -62.82 86.25 3.29 63
4 02/07/2024 06:32:45 70.18, 78.04 85.67 02/07/2024 06:33:45 70.17, 78.07 85.65 1.47 60
5 02/07/2024 07:23:26 -70.05,-114.44 94.48 02/07/2024 07:23:15 -70.06,-114.45 94.47 1.70 11
6 02/07/2024 08:14:00 69.39, 53.84 84.82 02/07/2024 08:12:51 69.46, 52.36 84.96 58.32 69
7 02/09/2024 22:49:40 70.12,-166.09 84.76 02/09/2024 22:50:15 70.14,-166.10 84.78 2.98 35
8 02/09/2024 23:40:22 -70.03, 1.35 95.34 02/09/2024 23:39:45 -70.04, 1.38 95.34 1.00 37
9 02/12/2024 14:16:01 -70.70, 141.44 95.49 02/12/2024 14:17:11 -70.58, 142.77 95.68 50.81 70
10 02/12/2024 15:06:36 70.11, -50.31 83.88 02/12/2024 15:06:45 70.09, -50.30 83.85 2.68 9
11 02/12/2024 15:57:17 -69.97, 117.22 96.29 02/12/2024 15:56:15 -69.98, 117.18 96.27 1.65 62
12 02/15/2024 06:32:46 -70.18,-101.95 96.95 02/15/2024 06:33:46 -70.17,-101.95 96.97 0.67 60
13 02/15/2024 07:23:30 70.06, 65.54 82.92 02/15/2024 07:23:13 70.06, 65.54 82.92 0.09 17
14 02/15/2024 08:14:02 -69.44,-126.23 97.75 02/15/2024 08:12:52 -69.46,-127.65 97.66 55.48 70



Historial Predications of SNOs between NOAA-20 and LANDSAT-8
